Location: Unspecified
(0.0000°N, 0.0000°E)
Time: 14:59:07
(UTC+01:00)

Hubble Space Telescope - Pass Details

Date: 17 May 2026
Orbit: 473 x 475 km, 28.5° (Epoch: 5 June)

Event Time Altitude Azimuth Distance (km) Brightness Sun altitude
Exits shadow 05:09:33 40° 31° (NNE) 708 1.7 -25.1°
Drops below altitude 10° 05:12:08 10° 51° (NE) 1,625 4.2 -24.5°
Sets 05:14:20 0° 54° (NE) 2,500 5.5 -24.0°
